Lapse_Rate
5.3 5.2 5.3 5.4 5.4 5.6 5.6 5.5 5.4 5.4 5.4 5.0 5.3 5.1 5.0 4.9 5.1 5.2 5.0 5.2 5.1 5.0 5.2 5.5 5.3 5.2 5.3 4.9 4.9 5.2 5.3 5.5 5.5 5.8 5.7 5.7 5.6 5.8
5.2 5.1 5.2 5.4 5.2 4.9 5.3 5.5 5.4 5.7 5.5 5.6 5.5 5.2 5.2 5.1 5.1 5.2 5.2 5.2 5.0 5.1 5.1 5.4 5.2 5.2 5.0 5.0 5.1 5.2 5.2 5.6 5.6 5.3 5.5 5.5 5.5 5.3
5.1 5.2 5.1 5.1 5.2 5.1 5.2 5.1 5.3 5.2 5.2 5.6 5.5 5.5 5.5 5.1 5.1 5.3 5.3 5.1 5.1 4.9 4.8 5.3 5.3 5.4 4.8 5.2 5.3 5.5 5.5 5.7 5.6 5.4 5.5 5.4 5.7 5.7
5.0 5.0 5.2 4.9 5.0 5.1 5.3 5.1 5.0 5.0 5.2 5.2 5.4 5.6 5.5 5.3 5.4 5.5 5.6 5.3 5.1 5.0 4.9 5.3 5.0 5.1 4.8 5.4 5.8 5.6 5.3 5.4 5.4 5.4 5.3 5.3 5.2 5.7
5.2 5.3 5.0 5.0 4.9 4.9 4.9 5.0 5.2 5.1 5.0 5.2 5.1 5.1 5.3 5.1 5.3 5.2 5.3 5.4 5.3 4.9 4.8 5.1 5.2 4.6 4.6 5.4 5.4 5.3 5.3 5.3 5.3 5.2 5.2 5.3 5.2 5.0
5.0 5.3 5.3 4.8 4.6 4.8 4.9 5.2 5.0 4.9 4.9 4.9 5.0 5.0 5.1 4.8 4.8 4.8 4.7 5.2 5.0 5.0 5.2 5.3 5.4 5.3 5.0 5.2 5.2 5.3 4.9 5.0 5.0 5.0 5.1 4.9 4.8 4.8
5.3 5.1 5.1 5.1 5.1 4.9 4.6 4.8 5.1 4.9 4.8 5.1 4.8 4.8 4.8 4.9 4.8 4.8 4.6 4.6 4.3 4.4 4.7 4.9 5.1 5.2 5.0 5.0 5.0 5.1 5.1 4.7 4.7 4.6 4.5 4.6 4.8 4.7
4.8 4.7 4.7 4.7 5.0 5.0 4.9 4.9 5.0 4.9 4.8 4.7 4.7 4.7 4.7 4.7 4.7 4.8 4.7 4.7 4.5 4.3 4.5 4.6 4.6 4.9 4.6 4.6 4.7 5.0 4.9 4.4 4.3 4.3 4.3 4.4 4.2 4.2
4.6 4.6 4.4 4.4 4.4 4.5 4.6 4.8 4.6 4.6 4.7 4.7 4.5 4.5 4.7 4.7 4.7 4.8 4.7 4.4 4.3 4.3 4.1 4.2 4.3 4.3 4.4 4.6 4.4 4.5 3.7 3.0 3.4 3.8 4.1 4.2 4.0 3.9
4.7 4.7 4.7 4.6 4.6 4.5 4.4 4.5 4.6 4.7 4.7 4.5 4.2 4.2 4.3 4.2 4.4 4.5 4.3 4.1 4.1 4.2 4.1 4.1 4.0 4.1 4.2 4.1 4.2 4.3 3.8 3.2 2.5 2.9 3.5 3.7 3.8 3.4
4.8 4.8 4.9 5.0 5.2 4.9 4.5 4.4 4.4 4.5 4.5 4.5 4.6 4.4 4.2 4.2 4.2 4.4 4.2 4.0 4.0 3.9 3.7 3.9 3.9 3.9 3.7 3.8 3.6 3.3 3.1 2.7 2.4 2.3 2.5 3.1 3.3 3.2
4.8 5.0 5.2 5.3 5.3 5.2 5.0 5.0 5.0 5.0 4.8 4.5 4.3 4.4 4.4 4.2 4.0 4.1 3.9 3.8 3.9 3.6 3.5 3.6 3.7 3.7 3.7 3.8 3.6 3.2 2.7 2.4 2.1 1.9 2.0 2.1 2.2 2.8
5.3 5.3 5.3 5.5 5.6 5.6 5.5 5.5 5.6 5.4 5.1 4.7 4.5 4.3 4.2 4.1 4.0 3.8 3.6 3.5 3.4 3.4 3.4 3.2 3.1 3.0 3.1 3.4 3.2 3.1 3.0 2.9 2.5 2.4 2.3 2.3 2.5 2.5
5.1 5.1 5.2 5.3 5.2 5.2 5.5 5.6 5.4 5.5 5.4 5.3 5.2 5.2 5.1 4.9 4.8 4.5 4.2 3.7 3.5 3.5 3.4 3.3 3.4 3.1 2.9 2.9 2.9 3.0 3.0 3.0 2.9 2.8 2.8 2.7 2.6 2.4
5.1 5.1 5.1 5.1 4.9 4.8 4.9 4.9 4.9 5.0 4.8 4.8 4.9 4.8 4.6 4.5 4.3 4.2 4.1 4.2 4.4 4.3 4.1 3.9 3.7 3.7 3.5 3.1 3.1 3.1 3.0 2.9 2.6 2.6 2.5 2.3 2.2 2.3
4.9 4.9 4.8 4.8 4.8 4.7 4.6 4.6 4.5 4.6 4.5 4.5 4.6 4.4 4.3 4.2 3.9 3.7 3.5 3.3 3.3 3.2 3.2 3.5 3.5 3.3 3.4 3.3 3.4 3.4 3.4 3.2 3.0 2.9 2.8 2.6 2.5 2.5
4.4 4.4 4.4 4.3 4.3 4.2 4.1 4.2 4.2 4.2 4.2 4.1 4.0 4.0 3.9 3.7 3.4 3.2 3.0 2.8 2.6 2.6 2.4 2.4 2.3 2.5 2.8 2.8 2.7 2.7 2.8 2.8 2.8 2.7 2.7 2.9 3.0 3.0
4.2 4.3 4.4 4.4 4.3 4.1 4.1 4.1 4.0 3.8 3.7 3.5 3.5 3.5 3.5 3.4 3.2 3.0 2.8 2.5 2.4 2.1 2.0 2.0 2.0 2.0 1.9 1.8 1.8 1.9 1.9 1.9 1.9 1.9 2.0 2.1 2.3 2.4
4.5 4.4 4.4 4.3 4.3 4.4 4.3 4.3 4.3 4.2 4.2 4.0 3.7 3.5 3.2 3.1 2.8 2.6 2.5 2.2 1.8 1.5 1.4 1.2 1.1 1.3 1.3 1.4 1.4 1.3 1.3 1.3 1.5 1.6 1.6 1.7 1.7 1.8
4.6 4.8 4.9 5.0 5.0 5.0 5.1 5.1 5.1 5.0 4.9 4.9 4.6 4.3 4.1 3.9 3.6 3.2 2.9 2.6 2.4 2.2 2.1 1.7 1.5 1.6 1.7 1.8 1.9 1.9 2.0 1.9 2.0 1.7 1.6 1.7 1.9 2.2
5.6 5.6 5.5 5.5 5.5 5.6 5.6 5.6 5.6 5.6 5.6 5.5 5.3 5.1 4.8 4.6 4.3 3.9 3.6 3.3 2.9 2.7 2.4 2.1 2.0 2.0 2.0 1.9 1.9 2.0 2.1 2.0 2.0 1.9 2.0 1.9 1.9 1.9
5.6 5.5 5.5 5.6 5.6 5.6 5.6 5.6 5.6 5.6 5.5 5.4 5.3 5.0 4.7 4.3 4.0 3.6 3.2 2.9 2.6 2.2 2.2 2.1 2.1 2.0 1.9 1.9 2.0 2.0 2.0 2.1 2.1 2.1 2.1 2.0 2.0 2.1
5.4 5.4 5.4 5.4 5.4 5.4 5.4 5.4 5.4 5.2 5.1 4.9 4.7 4.5 4.3 4.1 3.8 3.5 3.2 2.9 2.6 2.3 2.1 2.0 1.9 1.9 1.9 2.0 1.9 1.9 2.0 2.1 2.3 2.4 2.3 2.0 1.9 1.8
Wind_Speed
5 7 4 4 4 3 3 4 2 3 2 2 3 5 6 11 10 11 16 18 22 25 28 30 28 24 21 19 18 17 17 16 15 13 11 11 11 12
4 6 5 5 3 3 4 3 2 2 3 1 3 4 7 8 14 12 6 16 18 22 28 29 27 25 19 17 18 17 17 16 14 14 15 14 13 12
9 7 7 3 3 5 5 3 3 2 3 2 1 4 5 6 10 15 14 11 10 24 28 28 26 25 24 18 16 14 14 15 14 13 13 13 13 11
8 10 8 4 7 6 4 4 2 2 2 4 2 2 4 5 8 9 12 12 15 14 24 24 22 22 20 18 15 15 15 15 14 14 13 11 12 13
10 11 9 8 8 5 5 4 4 4 4 2 3 2 3 0 4 7 6 10 13 16 9 16 18 19 19 17 16 16 16 15 15 14 12 10 9 8
10 11 9 9 9 8 6 7 4 5 5 4 4 3 3 2 2 2 2 4 4 10 13 8 6 9 14 15 15 15 15 15 15 14 12 11 9 9
11 10 8 13 17 11 6 6 5 6 5 5 4 2 2 2 1 1 2 2 1 2 2 2 2 3 7 13 13 15 15 16 15 15 13 12 12 11
11 10 9 13 15 19 16 15 9 6 6 3 2 2 3 2 2 2 2 1 2 4 2 3 6 4 10 10 12 14 16 17 16 15 13 12 12 13
10 8 8 7 12 10 14 17 17 16 11 5 4 2 2 2 4 5 3 1 1 2 5 5 5 6 7 8 12 17 17 17 16 15 14 13 13 13
9 9 8 6 9 8 8 9 8 7 8 6 4 4 3 4 3 3 3 3 2 2 6 3 3 5 9 10 14 17 18 18 17 15 14 14 14 14
9 8 9 8 18 18 9 8 7 6 8 10 9 7 6 5 5 3 3 4 2 2 5 2 2 2 3 8 16 20 19 18 17 16 15 15 14 15
8 9 14 11 14 16 7 6 6 5 4 3 3 5 7 3 9 9 5 3 2 2 4 5 3 3 2 3 6 12 15 18 18 18 16 16 15 14
5 5 5 10 15 17 15 9 12 9 8 5 3 2 3 2 2 5 8 6 5 4 3 6 4 3 2 1 1 4 9 9 9 9 13 14 15 15
4 3 3 11 12 11 11 15 16 13 6 6 6 5 4 3 4 3 0 4 5 7 9 15 3 6 5 3 3 4 5 6 6 5 4 5 9 13
2 8 11 13 12 11 12 10 10 5 5 6 6 6 5 7 5 3 3 3 3 4 5 8 9 6 6 6 3 4 4 5 10 9 10 12 13 15
4 5 8 8 9 9 8 9 8 5 4 4 4 4 6 4 5 5 4 3 3 4 8 8 5 6 5 5 4 3 5 4 8 12 12 13 14 15
5 2 3 3 4 4 4 5 4 4 5 4 4 3 4 3 4 4 3 4 4 3 4 4 8 9 9 6 6 7 6 7 7 8 7 7 11 14
4 5 5 4 4 3 3 3 4 6 4 3 3 2 2 3 4 4 3 3 3 3 3 3 3 3 3 2 6 4 5 7 6 8 8 8 8 12
3 2 3 3 2 3 3 3 3 4 5 3 3 3 3 3 5 4 5 4 5 5 5 5 5 5 6 7 4 8 6 2 2 4 5 6 7 7
2 3 3 2 1 1 1 1 2 2 3 3 3 4 4 4 5 5 5 5 6 6 6 6 6 7 8 8 7 6 4 4 5 6 5 6 11 14
3 3 2 2 2 1 0 1 1 2 2 2 3 3 3 3 4 5 6 11 11 4 6 7 6 7 1 1 2 3 4 11 11 6 4 5 7 7
4 3 3 2 2 2 1 1 2 3 3 3 3 3 3 3 4 5 5 5 6 7 7 5 2 2 2 4 7 4 3 5 10 12 15 15 7 9
5 4 3 3 3 3 2 2 3 3 3 3 4 4 4 4 5 4 5 5 4 4 3 2 1 1 2 3 7 5 4 5 4 8 9 18 22 26
Wind_Direction
74 102 110 110 102 97 118 79 48 137 176 77 353 22 13 14 51 147 169 178 178 179 171 156 150 154 161 167 165 165 161 158 160 158 162 165 163 157
62 75 84 62 91 79 101 72 96 147 118 50 32 359 7 51 25 71 110 176 194 192 153 147 146 143 144 155 160 164 156 161 170 176 176 177 169 165
65 57 53 45 84 82 71 78 42 344 117 129 118 23 29 43 31 39 50 46 168 148 141 139 140 137 137 147 157 162 164 172 184 186 189 182 176 176
75 78 61 52 55 70 73 81 120 336 105 127 129 95 72 50 62 45 22 40 43 140 140 141 145 144 144 155 166 174 181 183 189 190 192 193 194 190
76 78 74 65 64 62 82 80 57 38 37 87 96 71 77 74 77 67 24 31 37 46 123 141 150 153 154 168 179 185 193 191 190 188 189 200 205 211
71 76 77 79 80 82 71 78 80 82 69 75 65 72 64 12 56 112 116 55 31 34 35 49 127 162 164 182 189 195 199 198 195 196 191 199 203 210
61 60 78 89 87 85 85 86 101 97 94 94 86 83 86 69 34 50 83 107 110 121 97 40 73 165 198 203 200 199 204 205 203 203 204 205 211 219
76 65 60 53 70 88 86 88 89 98 98 103 102 115 124 132 120 114 101 103 208 188 158 205 188 194 215 219 212 212 213 216 212 211 209 218 224 225
71 71 69 67 71 68 71 73 78 79 81 88 102 92 108 142 136 140 148 134 82 71 193 225 191 232 234 227 212 212 217 218 216 218 218 220 228 232
67 66 62 58 90 80 80 74 69 75 76 85 85 100 89 151 174 147 147 128 90 113 190 237 219 231 200 220 227 225 218 214 217 231 231 224 225 234
52 70 48 48 76 73 66 67 60 51 54 90 101 109 113 153 172 155 138 156 153 187 214 202 201 219 208 203 216 226 227 228 232 230 228 233 233 236
63 45 57 59 60 73 59 52 54 54 57 54 54 54 54 92 148 170 159 183 158 174 184 212 194 159 204 245 210 210 219 228 233 234 231 237 241 245
74 59 20 65 61 64 63 47 66 49 48 62 71 56 42 18 82 181 195 193 190 220 214 188 190 192 222 139 243 240 225 227 223 230 237 243 247 251
75 47 359 55 67 50 45 67 50 48 42 48 49 46 30 6 345 324 235 246 256 236 203 198 201 208 219 208 216 195 210 214 195 205 238 265 264 266
57 70 69 67 60 52 53 46 47 42 44 48 45 35 12 350 331 322 311 289 282 278 277 227 221 217 214 218 205 198 173 209 215 222 229 241 252 259
71 71 78 72 71 72 62 55 53 48 46 30 25 8 15 13 17 344 305 295 283 268 243 254 262 230 232 231 220 200 205 204 206 225 236 244 247 248
120 102 89 78 77 67 68 61 53 54 47 37 21 2 346 349 4 8 359 353 296 288 263 245 248 252 247 245 243 239 229 232 239 240 234 247 248 249
102 121 113 107 97 83 63 58 55 47 41 18 9 7 339 321 315 323 314 326 312 316 329 345 348 349 354 312 253 264 244 252 248 244 247 256 260 259
118 135 132 127 111 87 71 56 44 28 8 18 4 341 323 315 313 309 309 309 294 287 281 280 278 278 280 273 274 257 263 247 263 270 259 259 271 273
125 153 154 158 148 116 87 62 20 5 26 29 16 359 347 324 308 295 292 291 287 284 285 282 270 262 257 263 270 266 283 255 258 270 267 275 277 283
161 169 175 179 189 177 348 339 325 320 333 353 342 349 348 351 326 312 300 295 286 288 284 272 266 283 282 25 255 252 268 283 280 272 275 278 283 287
177 183 189 199 216 229 257 288 302 311 317 312 306 303 300 303 296 302 302 302 295 282 276 280 275 219 217 240 260 264 273 294 293 285 281 277 280 276
197 198 192 206 216 223 229 243 261 281 284 287 284 282 280 273 270 265 272 273 276 285 276 273 273 290 259 247 265 271 261 273 282 293 283 282 283 283